Location: Little Maitland River
(43.8022°N, 81.1549°W)
Time: 21:22:45
(UTC+00:00)

Cosmos 2227 Rocket - Pass Details

Date: 09 December 2025
Orbit: 838 x 844 km, 71.0° (Epoch: 21 January)

Event Time Altitude Azimuth Distance (km) Brightness Sun altitude
Rises 00:28:03 0° 328° (NNW) 3,401 5.7 -28.1°
Reaches altitude 10° 00:30:36 10° 322° (NW) 2,463 5.0 -28.6°
Maximum altitude 00:35:52 42° 253° (WSW) 1,179 3.3 -29.6°
Drops below altitude 10° 00:41:08 10° 184° (S) 2,451 4.7 -30.5°
Sets 00:43:40 0° 178° (S) 3,382 5.4 -31.0°
